Regional Weather Roundup
Issued by NWS

Home | Current Version | Previous Version | Text Only | Print | Product List | Glossary Off
Versions: 1 2 3 4 5 6 7 8 9 10 11 12 13 14 15 16 17 18 19 20 21 22 23 24 25 26 27 28 29 30 31 32 33 34 35 36 37 38 39 40 41 42 43 44 45 46 47 48 49 50

025
ASUS45 KBOU 261207
RWRCO

WEATHER ROUNDUP FOR COLORADO
NATIONAL WEATHER SERVICE DENVER/BOULDER CO
600 AM MDT TUE SEP 26 2017

NOTE: "FAIR" INDICATES FEW OR NO CLOUDS BELOW 12000 FEET WITH NO
SIGNIFICANT WEATHER AND/OR OBSTRUCTIONS TO VISIBILITY.

COZ001>005-013-030-031-261300-
...NORTHWEST COLORADO...

CITY           SKY/WX    TMP DP  RH WIND       PRES   REMARKS
CRAIG          FAIR      23  19  85 CALM      30.19S
HAYDEN         FAIR      31  27  85 E12       30.20S WCI  22
MEEKER         FAIR      26  23  88 CALM      30.17S
RABBIT EARS PA FAIR      28  21  74 S5        30.24S WCI  23
STEAMBOAT SPGS FAIR      28  25  89 CALM      30.19S
WALDEN         FAIR      21  18  86 CALM      30.22F
$$

COZ006>008-011-261300-
...WEST CENTRAL VALLEYS...

CITY           SKY/WX    TMP DP  RH WIND       PRES   REMARKS
GRAND JUNCTION FAIR      42  29  59 SE3       30.10R
MONTROSE       FAIR      36  29  75 S8        30.16R
EAGLE          FAIR      28  24  85 E6        30.23R WCI  22
RIFLE          FAIR      36  30  79 E6        30.15R
DELTA          FAIR      40  31  71 N8        30.14R
NUCLA          FAIR      37  28  70 SE7       30.14S
$$

COZ017>023-064>068-261300-
...SOUTHWEST COLORADO...

CITY           SKY/WX    TMP DP  RH WIND       PRES   REMARKS
DURANGO        FAIR      27  21  78 NE3       30.11R
CORTEZ         FAIR      30  27  88 SE5       30.09R WCI  25
PAGOSA SPRINGS MOCLDY    31  19  58 CALM      30.16S
TELLURIDE      FAIR      33  13  43 SE5       30.20S WCI  28
WOLF CREEK PAS MOCLDY    30  -9  17 S8        30.35R WCI  23
$$

COZ009-010-012-014-032>034-037-058>063-261300-
...CENTRAL COLORADO...

CITY           SKY/WX    TMP DP  RH WIND       PRES   REMARKS
ASPEN          FAIR      26  22  84 CALM      30.18S
BUENA VISTA    CLOUDY    41  30  64 NW3       30.22R
COPPER MTN     FAIR      34  10  37 S10       30.29R WCI  26
BERTHOUD PASS  FAIR      23  14  68 W8        30.30R WCI  14
COTTONWOOD PAS MOCLDY    37  36  93 CALM      30.26R
GUNNISON       FAIR      21  14  74 CALM      30.23R
KREMMLING      FAIR      27  21  80 CALM      30.24S
LEADVILLE      MOCLDY    29  23  78 E5        30.24R WCI  24
MONARCH PASS   FAIR      30  12  47 S12       30.41R WCI  21
SALIDA         CLOUDY    40  33  76 SW7       30.29R
SUNLIGHT       FAIR      27  21  80 E5        30.28R WCI  21
WILKERSON PASS FOG      N/A N/A N/A SW6       30.32R VSB 1/2
$$

COZ069>075-261300-
...SAN LUIS VALLEY/SANGRE DE CRISTO MOUNTAINS...

CITY           SKY/WX    TMP DP  RH WIND       PRES   REMARKS
ALAMOSA        MOCLDY    25  22  88 SW6       30.19R WCI  18
DEL NORTE      FAIR      31  16  55 W12       30.21R WCI  21
LA VETA PASS   FOG       34  32  93 NE8       30.37R VSB<1/4 WCI  27
SAGUACHE       FAIR      30  19  64 N9        30.21R WCI  22
$$

COZ035-036-038>040-261300-
...NORTHERN COLORADO FRONT RANGE...

CITY           SKY/WX    TMP DP  RH WIND       PRES   REMARKS
DENVER INTL AP CLOUDY    46  43  89 SE3       30.17S
DMNS CITY PARK   N/A     46  44  93 NE9       30.18R
AURORA         CLOUDY    45  45 100 CALM      30.18R
FRONT RANGE AP CLOUDY    46  45  93 CALM      30.18S
ERIE MUNI ARPT NOT AVBL
BOULDER MUN AP CLOUDY    45  45 100 CALM      30.17S
CENTENNIAL     CLOUDY    45  42  89 NW3       30.18R
BROOMFIELD     CLOUDY    45  43  93 N6        30.18S
FORT COLLINS   MOCLDY    46  43  89 CALM      30.18S
LONGMONT       NOT AVBL
$$

COZ041-046-047-076>085-087-088-261300-
...PIKES PEAK/PALMER DIVIDE AND SOUTHERN FOOTHILLS...

CITY           SKY/WX    TMP DP  RH WIND       PRES   REMARKS
COLO. SPRINGS  FOG       45  44  97 SE8       30.20R VSB 1/2
A. F. ACADEMY  CLOUDY    43  43  99 SE7       30.18S
SCHRIEVER AFB  CLOUDY    43  43  99 MISG      30.20R
CHEYENNE MTN   LGT RAIN  42  42  99 SE5       30.14R
ELLICOTT       CLOUDY   N/A N/A N/A CALM      30.18R
FALCON         FOG       42  42  99 S6        30.21S VSB 1/2
FORT CARSON    CLOUDY    45  45 100 SE8       30.17R FOG
LIMON            N/A    N/A N/A N/A MISG      30.18R
MONUMENT HILL  CLOUDY    37  37 100 CALM      30.22R
CANON CITY     CLOUDY    48  48 100 E3        30.17R
WALSENBURG     NOT AVBL
TRINIDAD       FOG       46  46 100 E6        30.18R VSB 1/4
$$

COZ042>045-048>051-090-091-261300-
...NORTHEAST COLORADO...

CITY           SKY/WX    TMP DP  RH WIND       PRES   REMARKS
GREELEY ARPT   FAIR      41  40  96 N5        30.18S
AKRON          FAIR      38  36  92 SW6       30.16R
BURLINGTON     CLOUDY    45  45 100 NW5       30.17R FOG
WRAY           MOCLDY    46  46 100 S3        30.17R
YUMA           FOG       41  41 100 SW6       30.16S VSB 1/4
STERLING       FAIR      34  34 100 W3        30.16R
HOLYOKE        FAIR      43  41  93 CALM      30.15F
FORT MORGAN    FOG       38  37  96 SW5       30.18R VSB 1/2
$$

COZ086-089-092>099-261300-
...SOUTHEAST COLORADO...

CITY           SKY/WX    TMP DP  RH WIND       PRES   REMARKS
PUEBLO         CLOUDY    49  46  90 SE9       30.18R
LA JUNTA       CLOUDY    50  46  86 SE5       30.17R
LAMAR          CLOUDY    49  46  90 N7        30.14R
SPRINGFIELD      N/A     46  46 100 N9        30.15R
$$




USA.gov is the U.S. government's official web portal to all federal, state and local government web resources and services.